Weather History for KJKL - March, 2013

Change the Weather History Date:

Thursday, March 21, 2013

  Actual Average Record
Temperature  
Mean Temperature 25 °F 49 °F  
Max Temperature 30 °F 59 °F 84 °F (2012)
Min Temperature 19 °F 39 °F 16 °F (1986)
Degree Days  
Heating Degree Days 40 16  
Month to date heating degree days 543 408  
Since 1 July heating degree days 3769 3708  
Cooling Degree Days 0 0  
Month to date cooling degree days 0 0  
Year to date cooling degree days 0 0  
Moisture  
Dew Point 12 °F    
Average Humidity 57    
Maximum Humidity 67    
Minimum Humidity 46    
Precipitation  
Precipitation T in 0.13 in 0.72 in (1994)
Month to date precipitation 3.28 2.80  
Year to date precipitation 10.92 10.16  
Snow  
Snow T in 0.10 in 1.70 in (1984)
Month to date snowfall 6.3 2.2  
Since 1 July snowfall 15.6 21.8  
Snow Depth 0.00 in    
Sea Level Pressure  
Sea Level Pressure 29.98 in    
Wind  
Wind Speed 5 mph (WNW)    
Max Wind Speed 13 mph    
Max Gust Speed 20 mph    
Visibility 7 miles    
Events Snow    
T = Trace of Precipitation, MM = Missing Value Source: NWS Daily Summary

Daily Weather History Graph

Daily Weather History Graph

Search for Another Location

Airport or City:

Trip Planner

Search our weather history database for the weather conditions in past years. The results will help you decide how hot, cold, wet, or windy it might be!

Date:

Astronomy

Mar. 21, 2013 Rise Set
Actual Time 7:34 AM EDT 7:46 PM EDT
Civil Twilight 7:08 AM EDT 8:12 PM EDT
Nautical Twilight 6:38 AM EDT 8:43 PM EDT
Astronomical Twilight 6:07 AM EDT 9:14 PM EDT
Moon 2:20 PM EDT (3/21) 3:50 AM EDT (3/21)
Length of Visible Light 13h 03m
Length of Day
12h 11m
Waxing Gibbous, 68% of the Moon is Illuminated
Mar 21
Waxing Gibbous
Mar 27
Full
Apr 3
Last Quarter
Apr 10
New
Apr 18
First Quarter

Hourly Weather History & Observations

Time (EDT) Temp. Windchill Dew Point Humidity Pressure Visibility Wind Dir Wind Speed Gust Speed Precip Events Conditions
12:53 AM 25.0 °F 15.5 °F 9.0 °F 51% 29.98 in 10.0 mi WNW 9.2 mph - N/A   Overcast
1:53 AM 25.0 °F 18.1 °F 10.0 °F 53% 29.98 in 10.0 mi Variable 5.8 mph - N/A   Overcast
2:53 AM 24.1 °F 16.0 °F 8.1 °F 51% 29.98 in 10.0 mi WNW 6.9 mph - N/A   Overcast
3:53 AM 21.9 °F 14.5 °F 7.0 °F 53% 29.97 in 10.0 mi Variable 5.8 mph - N/A   Partly Cloudy
4:53 AM 21.0 °F 13.4 °F 8.1 °F 57% 29.96 in 10.0 mi West 5.8 mph - N/A   Scattered Clouds
5:53 AM 19.9 °F 13.4 °F 9.0 °F 62% 29.95 in 10.0 mi West 4.6 mph - N/A   Clear
6:53 AM 19.0 °F 13.9 °F 10.0 °F 68% 29.95 in 10.0 mi SW 3.5 mph - N/A   Scattered Clouds
7:53 AM 19.0 °F 13.9 °F 10.0 °F 68% 29.95 in 10.0 mi Variable 3.5 mph - N/A   Clear
8:53 AM 21.9 °F 13.4 °F 10.9 °F 63% 29.97 in 10.0 mi Variable 6.9 mph - N/A   Clear
9:53 AM 23.0 °F 14.7 °F 10.9 °F 60% 29.97 in 10.0 mi WNW 6.9 mph - N/A   Partly Cloudy
10:53 AM 23.0 °F 15.8 °F 10.0 °F 58% 29.99 in 10.0 mi NW 5.8 mph - N/A   Overcast
11:14 AM 23.0 °F 15.8 °F 12.2 °F 63% 29.96 in 2.5 mi West 5.8 mph - 0.00 in Snow Light Snow
11:21 AM 24.8 °F 16.9 °F 14.0 °F 64% 29.96 in 7.0 mi NW 6.9 mph - 0.00 in Snow Light Snow
11:36 AM 23.0 °F 13.9 °F 10.4 °F 59% 29.96 in 7.0 mi NNW 8.1 mph - 0.00 in Snow Light Snow
11:53 AM 27.0 °F 21.6 °F 10.9 °F 51% 30.00 in 9.0 mi Variable 4.6 mph - 0.00 in   Overcast
12:13 PM 24.8 °F 14.6 °F 14.0 °F 64% 29.97 in 2.0 mi WSW 10.4 mph 19.6 mph 0.00 in Snow Light Snow
12:16 PM 24.8 °F 16.9 °F 14.0 °F 64% 29.97 in 1.5 mi West 6.9 mph - 0.00 in Snow Light Snow
12:18 PM 24.8 °F 16.9 °F 12.2 °F 59% 29.97 in 1.8 mi Variable 6.9 mph - 0.00 in Snow Light Snow
12:22 PM 24.8 °F 16.1 °F 12.2 °F 59% 29.97 in 2.5 mi NNW 8.1 mph - 0.00 in Snow Light Snow
12:29 PM 26.6 °F - 14.0 °F 59% 29.97 in 9.0 mi Calm Calm - 0.00 in   Overcast
12:50 PM 23.0 °F 13.9 °F 12.2 °F 63% 29.97 in 1.5 mi WNW 8.1 mph - 0.00 in Snow Light Snow
12:53 PM 24.1 °F 13.1 °F 15.1 °F 69% 30.01 in 1.0 mi West 11.5 mph 16.1 mph 0.00 in Snow Light Snow
1:19 PM 23.0 °F 13.9 °F 17.6 °F 80% 29.97 in 0.5 mi NNW 8.1 mph - 0.00 in Snow Snow
1:30 PM 23.0 °F 13.9 °F 17.6 °F 80% 29.97 in 0.8 mi NW 8.1 mph - 0.00 in Snow Light Snow
1:37 PM 24.8 °F 19.1 °F 19.4 °F 80% 29.97 in 0.8 mi Variable 4.6 mph - 0.00 in Snow Light Snow
1:42 PM 26.6 °F 19.1 °F 19.4 °F 74% 29.97 in 2.0 mi Variable 6.9 mph - 0.00 in Snow Light Snow
1:47 PM 26.6 °F 21.2 °F 19.4 °F 74% 29.96 in 8.0 mi Variable 4.6 mph - 0.00 in   Overcast
1:53 PM 28.0 °F 22.8 °F 19.9 °F 72% 30.01 in 10.0 mi Variable 4.6 mph - 0.00 in   Overcast
2:13 PM 24.8 °F 16.9 °F 14.0 °F 64% 29.97 in 9.0 mi Variable 6.9 mph 19.6 mph 0.00 in Snow Light Snow
2:20 PM 26.6 °F 20.0 °F 15.8 °F 64% 29.96 in 9.0 mi Variable 5.8 mph 17.3 mph 0.00 in   Overcast
2:53 PM 26.1 °F 19.4 °F 12.0 °F 55% 30.01 in 10.0 mi Variable 5.8 mph - 0.00 in   Overcast
3:17 PM 26.6 °F 18.2 °F 14.0 °F 59% 29.96 in 8.0 mi NW 8.1 mph - 0.00 in Snow Light Snow
3:34 PM 28.4 °F 20.4 °F 15.8 °F 59% 29.96 in 9.0 mi WNW 8.1 mph - 0.00 in   Mostly Cloudy
3:53 PM 26.1 °F 20.5 °F 12.9 °F 58% 30.01 in 10.0 mi Variable 4.6 mph - 0.00 in   Mostly Cloudy
4:53 PM 28.0 °F 21.7 °F 10.9 °F 49% 30.01 in 10.0 mi Variable 5.8 mph - 0.00 in   Overcast
5:53 PM 27.0 °F 21.6 °F 10.9 °F 51% 30.01 in 10.0 mi WNW 4.6 mph - N/A   Mostly Cloudy
6:53 PM 28.0 °F 22.8 °F 10.9 °F 49% 30.02 in 10.0 mi West 4.6 mph - N/A   Overcast
7:53 PM 26.1 °F 21.9 °F 10.0 °F 51% 30.03 in 10.0 mi West 3.5 mph - N/A   Overcast
8:53 PM 25.0 °F 20.7 °F 10.0 °F 53% 30.04 in 10.0 mi North 3.5 mph - N/A   Partly Cloudy
9:53 PM 25.0 °F - 9.0 °F 51% 30.05 in 10.0 mi Calm Calm - N/A   Clear
10:53 PM 24.1 °F - 9.0 °F 53% 30.06 in 10.0 mi Calm Calm - N/A   Clear
11:53 PM 21.9 °F - 10.0 °F 60% 30.06 in 10.0 mi Calm Calm - N/A   Clear